[ hide orbit diagram ]
For accurate long-term ephemerides, please instead use our Horizons system.This orbit viewer was implemented using two-body methods, and hence should not be used for determining accurate long-term trajectories (over several years or decades) or planetary encounter circumstances.
Orbital Elements at Epoch 2459200.5 (2020-Dec-17.0) TDB
Reference: JPL 21 (heliocentric ecliptic J2000)
Element | Value | Uncertainty (1-sigma) | Units |
e | .1782207408609527 | 4.5304e-08 | |
a | 2.199442743056702 | 8.5273e-09 | au |
q | 1.80745642790789 | 9.91e-08 | au |
i | 6.938280369533368 | 5.922e-06 | deg |
node | 252.2538456742909 | 4.2831e-05 | deg |
peri | 110.6661405608617 | 4.6249e-05 | deg |
M | 170.2692713867296 | 1.8999e-05 | deg |
tp | 2458636.990561367970 (2019-Jun-02.49056137) | 6.1492e-05 | TDB |
period | 1191.426945422058 3.26 | 6.9288e-06 1.897e-08 | d yr |
n | .3021586857534696 | 1.7572e-09 | deg/d |
Q | 2.591429058205513 | 1.0047e-08 | au |
|
| | Orbit Determination Parameters
Additional Information
|
[ hide covariance matrix ]
Orbital Elements at Epoch 2456837.5 (2014-Jun-29.0) TDB
Reference: JPL 21 (heliocentric ecliptic J2000)
Element | Value | Uncertainty (1-sigma) | Units |
e | .1789168566013952 | 4.5437e-08 | |
q | 1.805549127892279 | 9.9445e-08 | au |
tp | 2456253.795549603245 (2012-Nov-22.29554960) | 5.6745e-05 | TDB |
node | 252.3115180782975 | 4.2877e-05 | deg |
peri | 110.5083763980966 | 4.6235e-05 | deg |
i | 6.934443274847259 | 5.9197e-06 | deg |
|
| | Orbit Determination Parameters
Additional Information
|
Orbit Covariance (6×6)
|
|
e |
q |
tp |
node |
peri |
i |
e |
2.064478847290057E-15 |
-4.507467531849421E-15 |
-6.00854199302138E-14 |
-7.487564000319739E-15 |
-6.477581950792038E-14 |
-1.888095619414121E-15 |
q |
-4.507467531849421E-15 |
9.889254569691604E-15 |
2.086317595216515E-13 |
1.462613624531698E-14 |
1.709467647984333E-13 |
4.075711666184509E-15 |
tp |
-6.00854199302138E-14 |
2.086317595216515E-13 |
3.219954923104675E-9 |
-5.820950520548638E-12 |
9.995518402952299E-10 |
-7.110754125662317E-13 |
node |
-7.487564000319739E-15 |
1.462613624531698E-14 |
-5.820950520548638E-12 |
1.838466387368901E-9 |
-1.82594499592522E-9 |
4.765711810486742E-11 |
peri |
-6.477581950792038E-14 |
1.709467647984333E-13 |
9.995518402952299E-10 |
-1.82594499592522E-9 |
2.137658309847465E-9 |
-4.752533042087276E-11 |
i |
-1.888095619414121E-15 |
4.075711666184509E-15 |
-7.110754125662317E-13 |
4.765711810486742E-11 |
-4.752533042087276E-11 |
3.504248934036438E-11 |
|
Physical Parameter Table
Parameter |
Symbol |
Value |
Units |
Sigma |
Reference |
Notes |
absolute magnitude |
H |
15.7 |
|
n/a |
MPO280268 |
|
diameter |
diameter |
1.698 |
km |
0.448 |
urn:nasa:pds:neowise_diameters_albedos::2.0[mainbelt] (http://adsabs.harvard.edu/abs/2011ApJ...741...68M) |
|
geometric albedo |
albedo |
0.321 |
|
0.141 |
urn:nasa:pds:neowise_diameters_albedos::2.0[mainbelt] (http://adsabs.harvard.edu/abs/2011ApJ...741...68M) |
|
|
79003 (3519 P-L) Discovered 1960-Oct-17 by van Houten, C. J., van Houten-Groeneveld, I., Gehrels, T. at Palomar |
Reference: 20040415/Numbers.arc | Last Updated: 2004-04-19 |
|
[ hide close-approach data ]
Close-Approach Data ...sorted by Date/Time (TDB)
|
Date/Time (TDB) |
Time Uncertainty (days_HH:MM) |
Body |
Nominal Distance (au) |
Minimum Distance (au) |
Maximum Distance (au) |
V-relative (km/s) |
V-infinity (km/s) |
JD (TDB) |
Time Uncertainty (minutes) |
Semi-major axis (km) |
Semi-minor axis (km) |
range-LOV angle (deg) |
N-sigma |
BP |
Orbit Ref. |
Reference |
Modified |
1984-Sep-06 12:00 |
< 00:01 |
Juno |
0.0445009778725017 |
0.0444999324304036 |
0.044502023343088 |
5.47022611396939 |
5.47022606399228 |
2445949.999926756 |
0.471576203606871 |
95.4633085199507 |
37.1293638568258 |
65.4364517554503 |
165539.981918997 |
T |
21 |
CATAB v2.0f-lin.ifort 2020-Feb-23 18:33:54 |
2020-Feb-23 18:33 |
2146-Nov-14 07:51 |
00:03 |
Iris |
0.0241959283577757 |
0.0241859190263285 |
0.0242059383366636 |
2.6919175355626 |
2.69191744730156 |
2505187.826916105 |
2.82337474599039 |
536.163221735977 |
44.7189030394313 |
21.7025379723027 |
30543.2784588251 |
T |
21 |
CATAB v2.0f-lin.ifort 2020-Feb-23 18:33:54 |
2020-Feb-23 18:33 |
|
|